Regional Weather Roundup
Issued by NWS

Home | Current Version | Previous Version | Text Only | Print | Product List | Glossary On
Versions: 1 2 3 4 5 6 7 8 9 10 11 12 13 14 15 16 17 18 19 20 21 22 23 24 25 26 27 28 29 30 31 32 33 34 35 36 37 38 39 40 41 42 43 44 45 46 47 48 49 50
000
ASUS43 KMPX 301610
RWRMN
WEATHER ROUNDUP FOR MINNESOTA
NATIONAL WEATHER SERVICE TWIN CITIES/CHANHASSEN MN
1100 AM CDT SAT AUG 30 2014


NOTE: "FAIR" INDICATES FEW OR NO CLOUDS BELOW 12,000 FEET WITH NO
SIGNIFICANT WEATHER AND/OR OBSTRUCTIONS TO VISIBILITY. N/A MEANS
CURRENT SKY AND/OR WEATHER CONDITIONS ARE NOT AVAILABLE.

MNZ060>063-068>070-301700-
   Twin Cities Metro

CITY           SKY/WX    TMP DP  RH WIND       PRES   REMARKS
TWIN CITIES    MOSUNNY   72  62  71 N10       29.85R
ST PAUL        CLOUDY    70  62  76 N9        29.85R
CRYSTAL        PTSUNNY   72  62  71 N10       29.84R
BLAINE         CLOUDY    70  64  83 N9        29.85R
LAKEVILLE      MOSUNNY   72  63  73 N7        29.85R
EDEN PRAIRIE   PTSUNNY   71  63  75 N8        29.84R
SOUTH ST PAUL  CLOUDY    69  62  78 N9        29.85R
LAKE ELMO      CLOUDY    68  63  83 N7        29.86R
$$
MNZ001>005-007-008-013>017-022>024-027-028-301700-
   Northwest Minnesota

CITY           SKY/WX    TMP DP  RH WIND       PRES   REMARKS
BEMIDJI        CLOUDY    59  54  84 NE10      29.92R
HALLOCK        SUNNY     64  54  68 E5        29.93F
ROSEAU         MOSUNNY   64  55  72 E7        29.93F
WARROAD        MOSUNNY   63  57  82 E7        29.95R
THIEF RVR FALL PTSUNNY   61  55  82 NE8       29.93F
CROOKSTON      SUNNY     61  54  77 E8        29.93F
FOSSTON        CLOUDY    63  55  77 NE9       29.93R
DETROIT LAKES  CLOUDY    63  57  82 NE5       29.92S
MOORHEAD       CLOUDY    61  61 100 N6        29.93R
PARK RAPIDS    CLOUDY    60  56  86 NE6       29.91R
MAHNOMEN       CLOUDY    61  56  82 NE8       29.91S
$$
MNZ006-009>011-018-025>026-301700-
   North Central Minnesota

CITY           SKY/WX    TMP DP  RH WIND       PRES   REMARKS
BAUDETTE       PTSUNNY   61  52  72 NE5       29.94S
FLAG ISLAND    CLOUDY    57  52  82 NE5       29.95R
INTL FALLS     PTSUNNY   65  54  67 NE9       29.92F
WASKISH        CLOUDY    61  55  82 NE6       29.93S
BIG FORK       CLOUDY    61  55  82 NE7       29.92R
LONGVILLE      CLOUDY    59  57  94 N5        29.90S
GRAND RAPIDS   CLOUDY    59  55  88 NE5       29.90R
CRANE LAKE     CLOUDY    59  54  82 CALM      29.93S
ORR            CLOUDY    61  54  77 N5        29.89S
COOK           CLOUDY    61  55  82 NE6       29.91R
WALKER         CLOUDY    58  55  92 N5        29.91R
$$
MNZ012-019>021-037-301700-
   Northeast Minnesota

CITY           SKY/WX    TMP DP  RH WIND       PRES   REMARKS
DULUTH         CLOUDY    64  60  87 NE6       29.87R
ELY            CLOUDY    59  55  88 N3        29.90R
EVELETH        CLOUDY    59  57  94 N6        29.91R
DULUTH HARBOR  CLOUDY    64  61  88 E3        29.87R
TWO HARBORS    CLOUDY    64  61  88 CALM      29.85R
SILVER BAY     PTSUNNY   63  63 100 CALM      29.85R
GRAND MARAIS     N/A     62  60  93 CALM      29.85R
G MARAIS ARPRT CLOUDY    59  55  88 N9        29.89R
$$
MNZ029>031-032-039>041-046>048-054>057-064-301700-
   West Central Minnesota

CITY           SKY/WX    TMP DP  RH WIND       PRES   REMARKS
FERGUS FALLS   CLOUDY    61  57  88 NW8       29.90S
WHEATON        CLOUDY    61  55  82 NW7       29.94R
MORRIS         CLOUDY    63  61  94 NW9       29.90R FOG
ALEXANDRIA     CLOUDY    64  60  87 N5        29.91R
ELBOW LAKE     CLOUDY    63  59  88 W8        29.91R
WADENA         CLOUDY    61  57  88 E5        29.90R
GLENWOOD       CLOUDY    63  63 100 N6        29.90S FOG
APPLETON       CLOUDY    63  59  88 NW10      29.90S
BENSON         CLOUDY    64  61  88 N8        29.90S
ORTONVILLE     CLOUDY    63  57  82 NW7       29.91S
MADISON        SUNNY     64  61  88 NW9       29.91S
WILLMAR        CLOUDY    64  63  94 W7        29.90S FOG
$$
MNZ033>034-036-042>043-049>051-058-059-301700-
   Central Minnesota

CITY           SKY/WX    TMP DP  RH WIND       PRES   REMARKS
ST CLOUD       LGT RAIN  70  63  78 NE5       29.87R
SAUK CENTRE    CLOUDY    63  61  94 N6        29.90R
PAYNESVILLE    RAIN      64  64  98 NW5       29.89R
AITKIN         CLOUDY    66  61  82 N6        29.87S
PINE RIVER     CLOUDY    61  61 100 N6        29.93S
BRAINERD       LGT RAIN  61  61 100 N8        29.89S FOG
STAPLES        CLOUDY    61  57  88 N6        29.90R
LONG PRAIRIE   CLOUDY    61  59  94 N6        29.90R
LITTLE FALLS   CLOUDY    63  61  94 NW3       29.89R
LITCHFIELD     CLOUDY    70  68  94 CALM      29.88S
BUFFALO        CLOUDY    70  62  74 N5        29.87S
MAPLE LAKE     CLOUDY    71  64  80 CALM      29.88R
$$
MNZ037-044-045-052-053-301700-
   East Central Minnesota

CITY           SKY/WX    TMP DP  RH WIND       PRES   REMARKS
PRINCETON      PTSUNNY   72  63  73 N7        29.87R
MORA           PTSUNNY   68  59  73 NE5       29.89R
CAMBRIDGE      PTSUNNY   70  57  64 N6        29.85R
RUSH CITY      CLOUDY    66  60  80 NE7       29.87R
MOOSE LAKE     CLOUDY    66  61  82 NE6       29.85S
HINCKLEY       CLOUDY    68  61  77 NE9       29.86R
CLOQUET        CLOUDY    64  61  88 N5        29.88R
MCGREGOR       CLOUDY    63  63 100 NE5       29.88S
$$
MNZ071>073-080-081-089-090-097-098-301700-
   Southwest Minnesota

CITY           SKY/WX    TMP DP  RH WIND       PRES   REMARKS
MONTEVIDEO     CLOUDY    63  63 100 N6        29.91S
GRANITE FALLS  CLOUDY    64  61  92 NW10      29.92S
CANBY          CLOUDY    62  59  89 NW6       29.93S
MARSHALL       CLOUDY    63  57  82 NW9       29.91R
REDWOOD FALLS  CLOUDY    64  62  93 W10       29.90R
OLIVIA         CLOUDY    63  61  94 W8        29.89S
PIPESTONE      DRIZZLE   63  61  94 NW6       29.93S
WINDOM         CLOUDY    66  63  88 W10       29.92R
WORTHINGTON    CLOUDY    63  63 100 N7        29.94S
JACKSON        CLOUDY    64  61  88 W8        29.92S
TRACY          CLOUDY    62  61  97 CALM      29.92S FOG
SLAYTON        CLOUDY    64  62  95 CALM      29.94S
$$
MNZ065>067-074>077-082>085-091>093-301700-
   South Central Minnesota

CITY           SKY/WX    TMP DP  RH WIND       PRES   REMARKS
MANKATO        CLOUDY    72  64  78 NW9       29.87R
NEW ULM        PTSUNNY   64  64 100 NW8       29.89R
ST JAMES       CLOUDY    66  63  88 W10       29.91R
FAIRMONT       CLOUDY    64  61  88 NW12      29.90R
GLENCOE        LGT RAIN  71  64  76 NW3       29.86R
FARIBAULT      MOSUNNY   75  61  60 NW7       29.86R
OWATONNA       MOSUNNY   72  63  73 NW9       29.86S
WASECA         PTSUNNY   72  61  68 NW7       29.89R
ALBERT LEA     PTSUNNY   72  66  83 N8        29.87R
$$
MNZ078>079-086>088-094>096-301700-
   Southeast Minnesota

CITY           SKY/WX    TMP DP  RH WIND       PRES   REMARKS
ROCHESTER      PTSUNNY   73  64  73 NW9       29.86R
RED WING       CLOUDY    70  64  83 NW7       29.83R
STANTON        MOSUNNY   71  62  73 N7        29.84R
DODGE CENTER   CLOUDY    72  64  78 NW10      29.86R
WINONA         CLOUDY    72  68  88 N10       29.81R
AUSTIN         CLOUDY    72  64  78 NW8       29.86R
PRESTON        CLOUDY    70  68  95 N3        29.85R
$$
ABBREVIATIONS USED IN REMARKS
   TC - TEMPERATURES IN CELSIUS
  WCI - WIND CHILL INDEX
   HX - HEAT INDEX
  VSB - VISIBILITY
$$



USA.gov is the U.S. government's official web portal to all federal, state and local government web resources and services.